Flag Weather past 2 weeks in Kulmbach, Bavaria, Germany

Now
35 °F

Fog.


Feels Like: 29 °F
Forecast: 33 / 49 °F
Wind: 7 mph from Southeast

Location: Hof

Current Time: Nov 23, 2014 at 11:40:59 PM

Latest Report: Nov 23, 2014 at 11:00 PM


Visibility: 2 mi

Pressure: 30.23 "Hg

Humidity: 100%

Dew point: 35 °F

Location of KulmbachLocation

Historic Weather in Kulmbach — Graph

°F

Kulmbach temperature yesterday

Maximum temperature yesterday: 41 °F (at 3:00 PM)
Minimum temperature yesterday: 32 °F (at 5:00 AM)
Average temperature yesterday: 36 °F

Past Weeks' High & Low Weather Summary

 TemperatureHumidityPressure
High54 °F (Nov 12, 2:00 PM)100% (Nov 8, 11:00 PM)30.35 "Hg (Nov 8, 11:00 PM)
Low31 °F (Nov 23, 7:00 AM)76% (Nov 15, 2:00 PM)29.47 "Hg (Nov 16, 5:00 AM)
Average42 °F94%29.94 "Hg
* Reported Nov 8 9:00 PM — Nov 23 9:00 PM, Kulmbach, Weather by CustomWeather, © 2014

Note: Actual official high and low records may vary slightly from our data, if they occured in-between our weather recording intervals... More about our weather records

Advertising

Kulmbach weather history for previous 24 hours

 ConditionsComfort  
Time TempWeatherWind HumidityBarometerVisibility
9:00 PM
Nov 23
34 °FFog.6 mph100%30.25 "Hg3 mi
8:00 PM34 °FFog.3 mph98%30.24 "Hg4 mi
7:00 PM35 °FFog.6 mph99%30.25 "Hg3 mi
6:00 PM36 °FPassing clouds.3 mph97%30.26 "Hg5 mi
5:00 PM37 °FPassing clouds.6 mph94%30.25 "Hg5 mi
3:00 PM38 °FSunny.5 mph89%30.25 "Hg6 mi
2:00 PM40 °FSunny.5 mph86%30.25 "Hg5 mi
1:00 PM39 °FFog.5 mph87%30.27 "Hg2 mi
12:00 PM39 °FFog.6 mph86%30.29 "Hg2 mi
11:00 AM37 °FSunny.5 mph90%30.31 "Hg5 mi
10:00 AM34 °FFog.3 mph95%30.33 "Hg4 mi
9:00 AM32 °FLow clouds.2 mph100%30.32 "Hg2 mi
8:00 AM31 °FScattered clouds.2 mph100%30.31 "Hg2 mi
7:00 AM31 °FPassing clouds.2 mph100%30.30 "Hg3 mi
6:00 AM32 °FLow clouds.3 mph100%30.29 "Hg0 mi
5:00 AM32 °FLow clouds.2 mph100%30.29 "Hg1 mi
3:00 AM33 °FLow clouds.3 mph100%30.30 "Hg0 mi
2:00 AM32 °FLow clouds.3 mph100%30.30 "Hg0 mi
1:00 AM33 °FLow clouds.3 mph100%30.31 "Hg1 mi
12:00 AM33 °FLow clouds.2 mph100%30.31 "Hg1 mi
11:00 PM
Nov 22
33 °FFog.2 mph100%30.29 "Hg2 mi
Weather by CustomWeather, © 2014

See weather overviewHow to use our weather pages